Flag for Poland Weather past 2 weeks in Zielona Góra, Poland

Now
73 °F

Partly sunny.


Feels Like: 77 °F
Forecast: 59 / 79 °F
Wind: 3 mph from Northwest

Location: Zielona Gora

Current Time: Jul 31, 2014 at 8:00:40 PM

Latest Report: Jul 31, 2014 at 7:00 PM


Visibility: 25 mi

Pressure: 29.93 "Hg

Humidity: 52%

Dew point: 54 °F

Location of Zielona GóraLocation

Historic Weather in Zielona Góra — Graph

°F

Zielona Góra temperature yesterday

Maximum temperature yesterday: 81 °F (at 3:00 PM)
Minimum temperature yesterday: 66 °F (at 4:00 AM)
Average temperature yesterday: 74 °F

Past Weeks' High & Low Weather Summary

 TemperatureHumidityPressure
High91 °F (Jul 20, 3:00 PM)100% (Jul 26, 4:00 AM)30.18 "Hg (Jul 26, 4:00 AM)
Low58 °F (Jul 24, 5:00 AM)31% (Jul 18, 5:00 PM)29.70 "Hg (Jul 30, 3:00 PM)
Average73 °F68%29.93 "Hg
* Reported Jul 16 6:00 PM — Jul 31 6:00 PM, Zielona Góra, Weather by CustomWeather, © 2014

Note: Actual official high and low records may vary slightly from our data, if they occured in-between our weather recording intervals... More about our weather records

Advertising

Zielona Góra weather history for previous 24 hours

 ConditionsComfort  
Time TempWeatherWind HumidityBarometerVisibility
6:00 PM
Jul 31
72 °FPartly sunny.1 mph60%29.93 "Hg25 mi
5:00 PM72 °FPartly sunny.2 mph60%29.93 "Hg25 mi
4:00 PM71 °FOvercast.3 mph61%29.94 "Hg25 mi
3:00 PM70 °FOvercast.5 mph66%29.93 "Hg25 mi
2:00 PM70 °FOvercast.3 mph69%29.94 "Hg22 mi
1:00 PM69 °FOvercast.3 mph77%29.94 "Hg22 mi
12:00 PM69 °FOvercast.2 mph76%29.94 "Hg19 mi
11:00 AM67 °FOvercast.3 mph79%29.93 "Hg19 mi
10:00 AM66 °FOvercast.5 mph83%29.92 "Hg19 mi
9:00 AM66 °FOvercast.5 mph85%29.91 "Hg16 mi
8:00 AM64 °FLow clouds.5 mph91%29.89 "Hg7 mi
7:00 AM64 °FLow clouds.3 mph93%29.88 "Hg9 mi
6:00 AM63 °FFog.5 mph93%29.86 "Hg5 mi
5:00 AM64 °FFog.5 mph95%29.85 "Hg5 mi
4:00 AM64 °FLow clouds.5 mph95%29.83 "Hg2 mi
3:00 AM65 °FDrizzle. Low clouds.6 mph97%29.81 "Hg2 mi
2:00 AM67 °FLight rain. Low clouds.3 mph95%29.81 "Hg4 mi
1:00 AM67 °FLight rain. Low clouds.3 mph93%29.82 "Hg4 mi
12:00 AM69 °FFog.3 mph93%29.79 "Hg5 mi
11:00 PM
Jul 30
69 °FFog.2 mph93%29.77 "Hg5 mi
10:00 PM70 °FPassing clouds.3 mph89%29.77 "Hg9 mi
9:00 PM71 °FOvercast.3 mph83%29.76 "Hg12 mi
8:00 PM76 °FOvercast.2 mph69%29.73 "Hg12 mi
Weather by CustomWeather, © 2014

See weather overviewHow to use our weather pages